This is the latest recevied weather packets stored in our database for station/object W2OBX. If no packets are shown the sender has not sent any weather packets the latest 10 day(s).
| Time | Temp. | Humidity | Pressure | Rain* | Wind** | Luminosity | Snow |
|---|---|---|---|---|---|---|---|
| 1777998297 | 23.33° C | 49% | 1015.4 hPa | 0 mm | - | 119 W/m² | - |
| 1777997994 | 22.78° C | 45% | 1015.4 hPa | 0 mm | - | 108 W/m² | - |
| 1777997691 | 22.78° C | 50% | 1015.5 hPa | 0 mm | - | 105 W/m² | - |
| 1777997388 | 22.78° C | 46% | 1015.4 hPa | 0 mm | - | 103 W/m² | - |
| 1777997087 | 22.78° C | 46% | 1015.5 hPa | 0 mm | - | 108 W/m² | - |
| 1777996783 | 22.78° C | 46% | 1015.7 hPa | 0 mm | - | 108 W/m² | - |
| 1777996479 | 22.22° C | 48% | 1015.5 hPa | 0 mm | - | 112 W/m² | - |
| 1777996176 | 22.22° C | 47% | 1015.6 hPa | 0 mm | - | 106 W/m² | - |
| 1777995872 | 22.22° C | 50% | 1015.7 hPa | 0 mm | - | 98 W/m² | - |
| 1777995568 | 22.78° C | 45% | 1015.8 hPa | 0 mm | - | 101 W/m² | - |
| 1777995266 | 22.78° C | 47% | 1015.8 hPa | 0 mm | - | 95 W/m² | - |
| 1777994963 | 22.22° C | 50% | 1015.6 hPa | 0 mm | - | 83 W/m² | - |
| 1777994660 | 21.67° C | 51% | 1015.6 hPa | 0 mm | - | 80 W/m² | - |
| 1777994360 | 21.11° C | 54% | 1015.6 hPa | 0 mm | - | 64 W/m² | - |
| 1777994056 | 21.11° C | 60% | 1015.7 hPa | 0 mm | - | 50 W/m² | - |
| 1777993754 | 20.56° C | 56% | 1015.8 hPa | 0 mm | - | 48 W/m² | - |
| 1777993451 | 20.56° C | 59% | 1015.5 hPa | 0 mm | - | 54 W/m² | - |
| 1777993145 | 20.56° C | 62% | 1015.7 hPa | 0 mm | - | 63 W/m² | - |
| 1777992843 | 20.56° C | 62% | 1015.9 hPa | 0 mm | - | 64 W/m² | - |
| 1777992540 | 20° C | 59% | 1015.7 hPa | 0 mm | - | 67 W/m² | - |
| 1777992239 | 20° C | 64% | 1015.7 hPa | 0 mm | - | 70 W/m² | - |
| 1777991935 | 20° C | 64% | 1015.8 hPa | 0 mm | - | 67 W/m² | - |
| 1777991633 | 19.44° C | 63% | 1015.9 hPa | 0 mm | - | 65 W/m² | - |
| 1777991330 | 19.44° C | 66% | 1015.8 hPa | 0 mm | - | 66 W/m² | - |
| 1777991027 | 18.89° C | 66% | 1016.1 hPa | 0 mm | - | 66 W/m² | - |
* Rain latest hour (hover to see other rain measurements)
** Current wind speed in m/s (hover to see current wind gust speed)